Regional Weather Roundup
Issued by NWS

Home | Current Version | Previous Version | Graphics & Text | Print | Product List | Glossary Off
Versions: 1 2 3 4 5 6 7 8 9 10 11 12 13 14 15 16 17 18 19 20 21 22 23 24 25 26 27 28 29 30 31 32 33 34 35 36 37 38 39 40 41 42 43 44 45 46 47 48 49 50

000
ASUS43 KLSX 060357
RWRMO

WEATHER SUMMARY FOR MISSOURI
NATIONAL WEATHER SERVICE SPRINGFIELD MO
1100 PM CDT THU MAY 05 2016

NOTE: "FAIR" INDICATES FEW OR NO CLOUDS BELOW 12,000 FEET WITH NO
       SIGNIFICANT WEATHER AND/OR OBSTRUCTIONS TO VISIBILITY.
       CURRENT SKY AND/OR WEATHER CONDITIONS ARE NOT AVAILABLE FOR
       CHILLICOTHE AND FARMINGTON.

MOZ001>031-035>038-043-044-053-054-060500-
...NORTHERN AND WESTERN MISSOURI...

CITY           SKY/WX    TMP DP  RH WIND       PRES   REMARKS
KANSAS CTY INT CLEAR     60  38  43 SE5       30.05R
LEE`S SUMMIT   CLEAR     59  39  47 S3        30.05S
ST JOSEPH      CLEAR     55  48  77 CALM      30.05R
CHILLICOTHE      N/A     51  44  77 CALM      30.06R

$$
MOZ066>068-077>081-088>096-101>105-060500-
...SOUTHWEST MISSOURI...

CITY           SKY/WX    TMP DP  RH WIND       PRES   REMARKS
SPRINGFIELD    CLEAR     51  38  60 CALM      30.05R
JOPLIN         CLEAR     53  45  74 CALM      30.06R

$$
MOZ032>034-039>042-045>050-055>058-069>072-060500-
...CENTRAL MISSOURI...

CITY           SKY/WX    TMP DP  RH WIND       PRES   REMARKS
COLUMBIA       NOT AVBL
JEFFERSON CITY CLOUDY    51  42  71 CALM      30.05R
ROLLA          PTCLDY    49  39  68 CALM      30.04R
SEDALIA        CLEAR     59  34  39 CALM      30.06S
WARRENSBURG    CLEAR     54  41  62 CALM      30.05S

$$
MOZ051-052-059>065-060500-
...EAST CENTRAL MISSOURI...

CITY           SKY/WX    TMP DP  RH WIND       PRES   REMARKS
ST LOUIS INTL  CLEAR     56  43  61 W3        30.03S

$$
MOZ072>076-082>087-097>100-106>115-060500-
...SOUTH CENTRAL AND SOUTHEAST MISSOURI...

CITY           SKY/WX    TMP DP  RH WIND       PRES   REMARKS
CAPE GIRARDEAU CLEAR     49  45  86 CALM      30.03R
POPLAR BLUFF   CLEAR     52  47  83 CALM      30.04R
WEST PLAINS    CLEAR     49  37  63 CALM      30.06R

$$



USA.gov is the U.S. government's official web portal to all federal, state and local government web resources and services.